[[{"header":{"parameterUnit":"m.s-1","parameterCategory":1,"la1":30.2992,"la2":30.254,"lo1":-89.0895,"lo2":-89.0443,"dy":0.0025,"dx":0.0025,"nx":19,"ny":19,"refTime":"2026-05-02T21:00:00:Z","depth":0,"parameterNumber":2,"parameterNumberName":"U-component_of_WINDS"},"data":[0,0,0,-2.6252,-2.6253,-2.6298,-2.6299,-2.6379,-2.638,0,0,0,0,0,0,0,0,0,0,0,-2.6251,-2.6252,-2.6252,-2.6253,-2.6298,-2.6299,-2.6379,-2.638,0,0,0,0,0,0,0,0,0,0,0,-2.6251,-2.6252,-2.6253,-2.6254,-2.6298,-2.6299,-2.6379,-2.6337,0,0,0,0,0,0,0,0,0,0,-2.6289,-2.63,-2.6252,-2.6253,-2.6254,-2.6298,-2.6299,-2.6334,-2.6339,-2.6368,0,-2.6396,0,-2.6389,-2.6387,-2.6387,0,0,0,-2.6244,-2.6296,-2.6297,-2.6253,-2.6254,-2.6298,-2.6275,-2.6337,-2.6343,-2.6375,-2.6397,-2.6399,-2.6391,-2.6387,-2.6388,-2.6582,-2.6584,0,0,-2.6242,-2.6266,-2.6293,-2.6301,-2.6294,-2.6274,-2.6277,-2.634,-2.6366,-2.6397,-2.6401,-2.6392,-2.6388,-2.6389,-2.6581,-2.6583,0,0,0,-2.6241,-2.6265,-2.6263,-2.6299,-2.6305,-2.6276,-2.6279,-2.6363,-2.6361,-2.6401,-2.6393,-2.6389,-2.639,-2.658,-2.6582,-2.6674,0,0,0,-2.6239,-2.6264,-2.6263,-2.6279,-2.6304,-2.6334,-2.6301,-2.6356,-2.6362,-2.6392,-2.6389,-2.6391,-2.6578,-2.6581,-2.6668,-2.6714,0,0,0,-2.6244,-2.6265,-2.6275,-2.628,-2.63,-2.6333,-2.6333,-2.6357,-2.6358,-2.6387,-2.6391,-2.6577,-2.658,-2.6663,-2.6705,-2.6774,0,0,0,-2.6257,-2.6355,-2.6277,-2.6384,-2.63,-2.6388,-2.6333,-2.6397,-2.6433,-2.6389,-2.6578,-2.6582,-2.6661,-2.67,-2.6769,-2.6839,-2.6869,0,0,-2.6395,-2.6373,-2.6434,-2.6365,-2.6474,-2.6379,-2.6502,-2.6511,-2.6491,-2.6554,-2.6558,-2.667,-2.6705,-2.6773,-2.7028,-2.7052,0,0,0,-2.6486,-2.6531,-2.6554,-2.6589,-2.6599,-2.6611,-2.6599,-2.6603,-2.6655,-2.6528,-2.6711,-2.6731,-2.677,-2.6803,-2.6824,-2.6857,-2.6597,-2.6596,-2.6596,-2.6719,-2.6688,-2.6788,-2.6764,-2.6798,-2.6785,-2.6812,-2.6815,-2.6772,-2.6817,-2.6836,-2.6994,-2.7033,-2.7048,-2.7083,-2.6868,-2.6868,-2.6868,-2.6869,-2.6921,-2.6981,-2.6923,-2.7,-2.6967,-2.7032,-2.7023,-2.6992,-2.7048,-2.6976,-2.7009,-2.6937,-2.7076,-2.7105,-2.6875,-2.6874,-2.6873,-2.6873,-2.6872,-2.7073,-2.7096,-2.7098,-2.7147,-2.7189,-2.716,-2.7217,-2.7184,-2.7154,-2.7187,-2.7205,-2.7204,-2.7201,-2.7197,-2.7198,-2.7198,-2.7199,-2.7199,-2.72,-2.723,-2.7229,-2.7281,-2.7301,-2.732,-2.7341,-2.733,-2.7348,-2.7361,-2.7333,-2.7333,-2.7289,-2.7094,-2.7048,-2.7208,-2.7207,-2.7206,-2.7205,-2.7204,-2.7451,-2.7396,-2.7477,-2.7496,-2.7517,-2.7562,-2.7519,-2.756,-2.757,-2.76,-2.7549,-2.7409,-2.7384,-2.7368,-2.7329,-2.7553,-2.7553,-2.7553,-2.7553,-2.7582,-2.7565,-2.7641,-2.7675,-2.7704,-2.7674,-2.7769,-2.7761,-2.7745,-2.775,-2.7712,-2.7657,-2.7641,-2.7626,-2.7604,-2.7568,-2.7847,-2.7847,-2.7848,-2.7718,-2.7703,-2.7789,-2.7772,-2.7786,-2.7799,-2.7888,-2.793,-2.7899,-2.7859,-2.7754,-2.7741,-2.7652,-2.7624,-2.7584,-2.755,-2.7483,0,0]},{"header":{"parameterUnit":"m.s-1","parameterCategory":1,"la1":30.2992,"la2":30.254,"lo1":-89.0895,"lo2":-89.0443,"dy":0.0025,"dx":0.0025,"nx":19,"ny":19,"refTime":"2026-05-02T21:00:00:Z","depth":0,"parameterNumber":3,"parameterNumberName":"V-component_of_WINDS"},"data":[0,0,0,-2.2277,-2.2279,-2.2346,-2.2346,-2.2439,-2.244,0,0,0,0,0,0,0,0,0,0,0,-2.2263,-2.2263,-2.2277,-2.2279,-2.2346,-2.2346,-2.2439,-2.244,0,0,0,0,0,0,0,0,0,0,0,-2.2262,-2.2263,-2.2264,-2.2279,-2.2346,-2.2346,-2.2439,-2.2386,0,0,0,0,0,0,0,0,0,0,-2.2319,-2.2311,-2.2263,-2.2264,-2.228,-2.2346,-2.2346,-2.2383,-2.2389,-2.2413,0,-2.2435,0,-2.2439,-2.2447,-2.2448,0,0,0,-2.2275,-2.2306,-2.2319,-2.2264,-2.228,-2.2346,-2.2315,-2.2386,-2.2393,-2.2421,-2.2436,-2.244,-2.2441,-2.2448,-2.2448,-2.2599,-2.2599,0,0,-2.2271,-2.2277,-2.2315,-2.2324,-2.2315,-2.2312,-2.2317,-2.239,-2.2408,-2.2437,-2.2442,-2.2442,-2.2449,-2.2449,-2.2598,-2.2599,0,0,0,-2.2263,-2.2275,-2.2286,-2.232,-2.2332,-2.2315,-2.2319,-2.2404,-2.2408,-2.2443,-2.2444,-2.2449,-2.245,-2.2597,-2.2598,-2.2649,0,0,0,-2.2261,-2.227,-2.2285,-2.2289,-2.2331,-2.2369,-2.2332,-2.2403,-2.2411,-2.2443,-2.2449,-2.2451,-2.2596,-2.2597,-2.2645,-2.2672,0,0,0,-2.2256,-2.227,-2.2281,-2.2289,-2.2318,-2.2368,-2.2375,-2.2404,-2.2412,-2.2448,-2.2452,-2.2595,-2.2597,-2.2642,-2.2667,-2.2715,0,0,0,-2.2253,-2.2324,-2.2282,-2.2361,-2.2318,-2.2398,-2.2375,-2.2434,-2.2471,-2.245,-2.2596,-2.2598,-2.2641,-2.2664,-2.2712,-2.2757,-2.2777,0,0,-2.2346,-2.2336,-2.2382,-2.2346,-2.2436,-2.2388,-2.2484,-2.2512,-2.251,-2.2569,-2.2573,-2.2646,-2.2667,-2.2714,-2.2879,-2.2894,0,0,0,-2.2413,-2.2447,-2.2469,-2.2505,-2.2528,-2.2551,-2.2563,-2.2573,-2.2623,-2.2541,-2.2675,-2.2687,-2.2715,-2.2737,-2.275,-2.2774,-2.2608,-2.2607,-2.2607,-2.2554,-2.2548,-2.2624,-2.2626,-2.2661,-2.2673,-2.2701,-2.2717,-2.2699,-2.2731,-2.275,-2.285,-2.2876,-2.2886,-2.2911,-2.2771,-2.2772,-2.2772,-2.2772,-2.2691,-2.2739,-2.2714,-2.278,-2.2773,-2.2828,-2.2842,-2.2828,-2.2878,-2.2836,-2.286,-2.2816,-2.2903,-2.2924,-2.2776,-2.2775,-2.2775,-2.2774,-2.2774,-2.2784,-2.2806,-2.2817,-2.2869,-2.2909,-2.2908,-2.2958,-2.2948,-2.294,-2.2963,-2.2983,-2.2982,-2.2981,-2.2973,-2.2973,-2.2974,-2.2974,-2.2974,-2.2974,-2.2877,-2.2888,-2.2932,-2.2963,-2.2985,-2.3013,-2.3025,-2.3047,-2.3068,-2.3058,-2.3058,-2.3039,-2.2912,-2.2881,-2.298,-2.2979,-2.2978,-2.2978,-2.2977,-2.3022,-2.2988,-2.3055,-2.3078,-2.3113,-2.3155,-2.3142,-2.3186,-2.3202,-2.3227,-2.3202,-2.311,-2.3098,-2.3088,-2.3063,-2.3202,-2.3202,-2.3202,-2.3202,-2.3102,-2.3095,-2.3163,-2.3199,-2.3233,-2.3229,-2.3306,-2.3316,-2.3321,-2.3331,-2.3309,-2.3274,-2.3264,-2.3259,-2.3245,-2.3221,-2.3398,-2.3398,-2.3398,-2.3192,-2.3188,-2.3255,-2.326,-2.3288,-2.3311,-2.3384,-2.3426,-2.3425,-2.3406,-2.3339,-2.3331,-2.3274,-2.3256,-2.3238,-2.3216,-2.3172,0,0]}]]